Flag for USA

Past Weather in Town of Melbourne Beach, Florida, USA — Yesterday and Last 2 Weeks

Now
86 °F

Broken clouds.


Feels Like: 92 °F
Forecast: 90 / 74 °F
Wind: 23 mph from Southwest

Location: Melbourne International Airport

Current Time: Oct 16, 2019 at 1:07:15 pm

Latest Report: Oct 16, 2019 at 11:53 am


Visibility: 10 mi

Pressure: 29.91 "Hg

Humidity: 63%

Dew Point: 72 °F

Location of Town of Melbourne BeachLocation

Past Weather in Town of Melbourne Beach — Graph

°F

Town of Melbourne Beach Temperature Yesterday

Maximum temperature yesterday: 84 °F (at 11:53 am)
Minimum temperature yesterday: 70 °F (at 6:53 am)
Average temperature yesterday: 78 °F

High & Low Weather Summary for the Past Weeks

 TemperatureHumidityPressure
High89 °F (Oct 4, 2:53 pm)100% (Oct 10, 6:53 am)30.08 "Hg (Oct 10, 6:53 am)
Low68 °F (Oct 12, 5:53 am)55% (Oct 3, 1:53 pm)29.79 "Hg (Oct 8, 2:53 am)
Average80 °F77%29.96 "Hg
* Reported Oct 1 11:53 am — Oct 16 11:53 am, Town of Melbourne Beach. Weather by CustomWeather, © 2019

Note: Actual official high and low records may vary slightly from our data, if they occured in-between our weather recording intervals... More about our weather records

Advertising

Town of Melbourne Beach Weather History for the Previous 24 Hours

Scroll right to see more
 ConditionsComfort  
Time TempWeatherWind HumidityBarometerVisibility
11:53 am
Wed, Oct 16
86 °FBroken clouds.23 mph63%29.91 "Hg10 mi
11:11 am85 °FBroken clouds.18 mph68%29.92 "Hg10 mi
10:53 am85 °FPartly sunny.15 mph70%29.91 "Hg10 mi
9:53 am81 °FSunny.15 mph77%29.92 "Hg10 mi
8:53 am77 °FSunny.10 mph85%29.94 "Hg10 mi
7:53 am75 °FSunny.6 mph85%29.94 "Hg10 mi
6:53 am75 °FClear.6 mph85%29.94 "Hg10 mi
5:53 am75 °FClear.7 mph85%29.93 "Hg10 mi
4:53 am76 °FMild.7 mph82%29.93 "Hg10 mi
3:53 am76 °FMild.7 mph82%29.93 "Hg10 mi
2:53 am76 °FMild.8 mph82%29.94 "Hg10 mi
1:53 am76 °FMild.6 mph80%29.96 "Hg10 mi
12:53 am76 °FMild.5 mph80%29.96 "Hg10 mi
11:53 pm
Tue, Oct 15
77 °FWarm.6 mph77%29.97 "Hg10 mi
10:53 pm77 °FWarm.5 mph79%29.99 "Hg10 mi
9:53 pm78 °FWarm.5 mph76%29.99 "Hg10 mi
8:53 pm80 °FWarm.9 mph69%29.98 "Hg10 mi
7:53 pm80 °FWarm.8 mph67%29.98 "Hg10 mi
6:53 pm80 °FWarm.9 mph67%29.98 "Hg10 mi
5:53 pm81 °FWarm.13 mph65%29.97 "Hg10 mi
4:53 pm82 °FWarm.12 mph65%29.96 "Hg10 mi
3:53 pm83 °FWarm.12 mph61%29.98 "Hg10 mi
2:53 pm83 °FWarm.10 mph63%30.00 "Hg10 mi
1:53 pm83 °FWarm.9 mph63%30.03 "Hg10 mi
Weather by CustomWeather, © 2019

See weather overview